Thermopolis, WY

1:21 AM MDT on May 23, 2017 (GMT -0600)
Thermopolis

Weather History for KTBX - October, 2011

Change the Weather History Date:

Monday, October 24, 2011

  Actual Average (KWRL) Record (KWRL)
Temperature  
Mean Temperature 44 °F -  
Max Temperature 55 °F 59 °F 83 °F (1992)
Min Temperature 33 °F 30 °F 19 °F (1976)
Degree Days  
Heating Degree Days 21    
Moisture  
Dew Point 26 °F    
Average Humidity 48    
Maximum Humidity 100    
Minimum Humidity 25    
Precipitation  
Precipitation 0.00 in - - ()
Sea Level Pressure  
Sea Level Pressure 30.08 in    
Wind  
Wind Speed 10 mph ()    
Max Wind Speed 32 mph    
Max Gust Speed 25 mph    
Visibility 9.3 miles    
Events Fog , Snow    
Averages and records for this station are not official NWS values.
T = Trace of Precipitation, MM = Missing Value Source: Averaged Metar Reports

Daily Weather History Graph

Daily Weather History Graph

Search for Another Location

Airport or City:

Trip Planner

Search our weather history database for the weather conditions in past years. The results will help you decide how hot, cold, wet, or windy it might be!

Date:

Astronomy

Oct. 24, 2011 Rise Set
Actual Time 7:37 AM MDT 6:15 PM MDT
Civil Twilight 7:08 AM MDT 6:45 PM MDT
Nautical Twilight 6:35 AM MDT 7:18 PM MDT
Astronomical Twilight 6:02 AM MDT 7:51 PM MDT
Moon 4:56 AM MDT (10/24) 4:44 PM MDT (10/24)
Length of Visible Light 11h 36m
Length of Day
10h 37m
Waning Crescent, 7% of the Moon is Illuminated
Oct 24
Waning Crescent
Oct 26
New
Nov 2
First Quarter
Nov 10
Full
Nov 18
Last Quarter

Hourly Weather History & Observations

Time (MDT) Temp. Windchill Dew Point Humidity Pressure Visibility Wind Dir Wind Speed Gust Speed Precip Events Conditions
12:15 AM 46.4 °F 44.3 °F 28.4 °F 50% 30.21 in 10.0 mi SSE 4.6 mph - N/A   Clear
12:35 AM 46.4 °F 42.9 °F 26.6 °F 46% 30.20 in 10.0 mi South 6.9 mph - N/A   Clear
12:55 AM 46.4 °F 42.4 °F 28.4 °F 50% 30.19 in 10.0 mi South 8.1 mph - N/A   Clear
1:15 AM 44.6 °F 39.2 °F 28.4 °F 53% 30.18 in 10.0 mi South 10.4 mph 16.1 mph N/A   Clear
1:35 AM 44.6 °F 37.8 °F 26.6 °F 49% 30.18 in 10.0 mi SSW 15.0 mph 20.7 mph N/A   Clear
1:55 AM 46.4 °F 39.5 °F 26.6 °F 46% 30.17 in 10.0 mi SW 17.3 mph - N/A   Clear
2:15 AM 46.4 °F 39.0 °F 24.8 °F 43% 30.17 in 10.0 mi SW 19.6 mph 25.3 mph N/A   Clear
2:35 AM 46.4 °F 39.0 °F 24.8 °F 43% 30.16 in 10.0 mi SW 19.6 mph - N/A   Clear
2:55 AM 48.2 °F - 23.0 °F 37% 30.16 in 10.0 mi SW 20.7 mph 25.3 mph N/A   Clear
3:15 AM 48.2 °F - 21.2 °F 34% 30.16 in 10.0 mi WSW 17.3 mph 23.0 mph N/A   Clear
3:35 AM 48.2 °F - 21.2 °F 34% 30.16 in 10.0 mi WSW 17.3 mph - N/A   Clear
3:55 AM 48.2 °F - 23.0 °F 37% 30.15 in 10.0 mi SW 17.3 mph - N/A   Clear
4:15 AM 48.2 °F - 19.4 °F 32% 30.14 in 10.0 mi WSW 13.8 mph - N/A   Clear
4:35 AM 48.2 °F - 19.4 °F 32% 30.14 in 10.0 mi WSW 12.7 mph - N/A   Clear
4:55 AM 48.2 °F - 21.2 °F 34% 30.13 in 10.0 mi SW 18.4 mph - N/A   Clear
5:15 AM 46.4 °F 40.1 °F 21.2 °F 37% 30.13 in 10.0 mi SW 15.0 mph - N/A   Clear
5:35 AM 48.2 °F - 23.0 °F 37% 30.13 in 10.0 mi SSW 15.0 mph - N/A   Clear
5:55 AM 46.4 °F 40.4 °F 23.0 °F 40% 30.12 in 10.0 mi SSW 13.8 mph - N/A   Clear
6:15 AM 46.4 °F 41.1 °F 23.0 °F 40% 30.12 in 10.0 mi SSW 11.5 mph - N/A   Clear
6:35 AM 46.4 °F 41.5 °F 23.0 °F 40% 30.11 in 10.0 mi South 10.4 mph - N/A   Clear
6:55 AM 44.6 °F 39.2 °F 26.6 °F 49% 30.10 in 10.0 mi South 10.4 mph - N/A   Clear
7:15 AM 42.8 °F 37.5 °F 28.4 °F 57% 30.10 in 10.0 mi South 9.2 mph - N/A   Clear
7:35 AM 42.8 °F 37.5 °F 28.4 °F 57% 30.10 in 10.0 mi South 9.2 mph - N/A   Clear
7:55 AM 44.6 °F 39.2 °F 26.6 °F 49% 30.10 in 10.0 mi South 10.4 mph 16.1 mph N/A   Clear
8:15 AM 42.8 °F 37.5 °F 26.6 °F 53% 30.09 in 10.0 mi South 9.2 mph - N/A   Clear
8:35 AM 42.8 °F 37.0 °F 26.6 °F 53% 30.09 in 10.0 mi South 10.4 mph - N/A   Clear
8:55 AM 42.8 °F 37.5 °F 26.6 °F 53% 30.09 in 10.0 mi SSE 9.2 mph - N/A   Clear
9:15 AM 44.6 °F 39.2 °F 26.6 °F 49% 30.09 in 10.0 mi SSE 10.4 mph - N/A   Clear
9:35 AM 46.4 °F 41.5 °F 26.6 °F 46% 30.09 in 10.0 mi South 10.4 mph 17.3 mph N/A   Clear
9:55 AM 46.4 °F 41.1 °F 26.6 °F 46% 30.08 in 10.0 mi SSE 11.5 mph - N/A   Clear
10:15 AM 48.2 °F - 26.6 °F 43% 30.08 in 10.0 mi SSE 10.4 mph - N/A   Clear
10:35 AM 50.0 °F - 26.6 °F 40% 30.08 in 10.0 mi SSE 10.4 mph - N/A   Clear
10:55 AM 50.0 °F - 26.6 °F 40% 30.08 in 10.0 mi SE 11.5 mph - N/A   Clear
11:15 AM 50.0 °F - 26.6 °F 40% 30.08 in 10.0 mi SSE 11.5 mph - N/A   Clear
11:35 AM 50.0 °F - 26.6 °F 40% 30.07 in 10.0 mi SE 9.2 mph - N/A   Clear
11:55 AM 50.0 °F - 26.6 °F 40% 30.07 in 10.0 mi SE 8.1 mph - N/A   Clear
12:15 PM 51.8 °F - 26.6 °F 38% 30.06 in 10.0 mi SSE 9.2 mph - N/A   Clear
12:35 PM 51.8 °F - 28.4 °F 41% 30.05 in 10.0 mi SSE 8.1 mph - N/A   Clear
12:55 PM 51.8 °F - 26.6 °F 38% 30.05 in 10.0 mi SSE 5.8 mph - N/A   Clear
1:15 PM 53.6 °F - 23.0 °F 30% 30.04 in 10.0 mi SSE 8.1 mph - N/A   Clear
1:35 PM 53.6 °F - 23.0 °F 30% 30.03 in 10.0 mi SSE 5.8 mph - N/A   Clear
1:55 PM 53.6 °F - 23.0 °F 30% 30.02 in 10.0 mi SE 5.8 mph - N/A   Clear
2:15 PM 53.6 °F - 23.0 °F 30% 30.01 in 10.0 mi SSE 8.1 mph - N/A   Clear
2:35 PM 55.4 °F - 21.2 °F 26% 30.01 in 10.0 mi SSE 3.5 mph - N/A   Clear
2:55 PM 55.4 °F - 21.2 °F 26% 30.00 in 10.0 mi SSE 9.2 mph - N/A   Clear
3:15 PM 55.4 °F - 21.2 °F 26% 30.00 in 10.0 mi SSE 6.9 mph - N/A   Clear
3:35 PM 55.4 °F - 19.4 °F 25% 30.00 in 10.0 mi SE 8.1 mph - N/A   Clear
3:55 PM 55.4 °F - 19.4 °F 25% 30.00 in 10.0 mi SSE 10.4 mph - N/A   Clear
4:15 PM 53.6 °F - 21.2 °F 28% 30.00 in 10.0 mi South 5.8 mph - N/A   Clear
4:55 PM 53.6 °F - 19.4 °F 26% 30.00 in 10.0 mi Calm Calm - N/A   Clear
5:15 PM 53.6 °F - 19.4 °F 26% 30.00 in 10.0 mi SSW 3.5 mph - N/A   Clear
5:35 PM 53.6 °F - 19.4 °F 26% 30.01 in 10.0 mi SW 4.6 mph - N/A   Clear
5:55 PM 53.6 °F - 19.4 °F 26% 30.01 in 10.0 mi West 9.2 mph 16.1 mph N/A   Clear
6:15 PM 53.6 °F - 21.2 °F 28% 30.01 in 10.0 mi WSW 9.2 mph - N/A   Clear
6:35 PM 53.6 °F - 19.4 °F 26% 30.01 in 10.0 mi WSW 10.4 mph - N/A   Clear
6:55 PM 48.2 °F - 28.4 °F 46% 30.02 in 10.0 mi NNW 6.9 mph - N/A   Clear
7:15 PM 44.6 °F 40.2 °F 32.0 °F 61% 30.02 in 10.0 mi North 8.1 mph - N/A   Clear
7:35 PM 44.6 °F 40.7 °F 33.8 °F 66% 30.03 in 10.0 mi North 6.9 mph - N/A   Clear
7:55 PM 42.8 °F 37.0 °F 33.8 °F 70% 30.03 in 10.0 mi North 10.4 mph - N/A   Clear
8:35 PM 41.0 °F 32.8 °F 33.8 °F 76% 30.03 in 10.0 mi NNW 16.1 mph - N/A   Clear
8:55 PM 37.4 °F 26.6 °F 33.8 °F 87% 30.03 in 10.0 mi NNW 21.9 mph - N/A   Scattered Clouds
9:15 PM 37.4 °F 28.2 °F 33.8 °F 87% 30.03 in 10.0 mi North 16.1 mph - N/A   Mostly Cloudy
9:35 PM 35.6 °F 24.2 °F 33.8 °F 93% 30.04 in 10.0 mi NNW 21.9 mph - N/A   Scattered Clouds
9:55 PM 35.6 °F - 33.8 °F 93% 30.05 in 10.0 mi North - - N/A   Scattered Clouds
10:15 PM 35.6 °F - 33.8 °F 93% 30.05 in 10.0 mi North - - N/A   Overcast
10:35 PM 35.6 °F - 33.8 °F 93% 30.06 in 0.5 mi North - - N/A Fog Fog
10:55 PM 33.8 °F - 33.8 °F 100% 30.06 in 0.2 mi North - - N/A Snow Light Snow
11:15 PM 33.8 °F - 33.8 °F 100% 30.05 in 0.2 mi North - - N/A Fog Fog
11:35 PM 33.8 °F - 33.8 °F 100% 30.05 in 0.2 mi North - - N/A Snow Light Snow
11:55 PM 33.8 °F 19.6 °F 33.8 °F 100% 30.06 in 0.2 mi NNW 32.2 mph - N/A Snow Light Snow